BMI21J EGCC-LEAL

Flight info

Callsign BMI21J
Flight time N/A
Altitude 35000
Route LISTO P18 TELBA L151 KIDLI UN859 SOPIL DCT BALAN DCT LMG DCT PIMQO DCT AGN DCT ANETO DCT POSSY DCT XIMPE DCT RIMES N860 VLC
Aircraft B735/M-SDE2E3FHIRW/S

Departure

Time 2026-05-06 16:18
Airport Manchester Airport (EGCC)

Arrival

Time N/A
Airport Alicante-Elche Miguel Hernández Airport (LEAL)
Time Latitude Longitude Altitude Speed Heading
2026-05-06 15:12 53.36038 -2.26887 248 ft 0 kts 313°
2026-05-06 15:13 53.36062 -2.26840 248 ft 0 kts 313°
2026-05-06 16:02 53.36061 -2.26839 248 ft 1 kts 313°
2026-05-06 16:02 53.36045 -2.26810 248 ft 3 kts 313°
2026-05-06 16:02 53.36032 -2.26782 248 ft 4 kts 292°
2026-05-06 16:03 53.36031 -2.26741 248 ft 4 kts 240°
2026-05-06 16:03 53.36046 -2.26708 248 ft 3 kts 231°
2026-05-06 16:03 53.36048 -2.26702 248 ft 0 kts 231°
2026-05-06 16:07 53.36047 -2.26705 248 ft 1 kts 232°
2026-05-06 16:09 53.36046 -2.26708 248 ft 2 kts 232°
2026-05-06 16:09 53.36028 -2.26744 248 ft 5 kts 222°
2026-05-06 16:09 53.35997 -2.26754 248 ft 2 kts 178°
2026-05-06 16:09 53.35989 -2.26749 249 ft 2 kts 153°
2026-05-06 16:10 53.35969 -2.26731 252 ft 5 kts 160°
2026-05-06 16:10 53.35932 -2.26757 254 ft 8 kts 237°
2026-05-06 16:10 53.35892 -2.26855 254 ft 11 kts 232°
2026-05-06 16:10 53.35851 -2.26945 254 ft 9 kts 236°
2026-05-06 16:11 53.35819 -2.27033 253 ft 9 kts 240°
2026-05-06 16:11 53.35785 -2.27113 252 ft 8 kts 231°
2026-05-06 16:11 53.35752 -2.27181 253 ft 7 kts 231°
2026-05-06 16:11 53.35731 -2.27226 253 ft 8 kts 231°
2026-05-06 16:12 53.35696 -2.27299 253 ft 8 kts 231°
2026-05-06 16:12 53.35659 -2.27376 253 ft 9 kts 231°
2026-05-06 16:12 53.35620 -2.27454 253 ft 9 kts 230°
2026-05-06 16:12 53.35577 -2.27542 250 ft 12 kts 232°
2026-05-06 16:13 53.35522 -2.27657 248 ft 12 kts 230°
2026-05-06 16:13 53.35474 -2.27758 249 ft 10 kts 234°
2026-05-06 16:13 53.35459 -2.27870 247 ft 11 kts 270°
2026-05-06 16:13 53.35424 -2.27973 243 ft 11 kts 223°
2026-05-06 16:14 53.35365 -2.28070 241 ft 12 kts 223°
2026-05-06 16:14 53.35301 -2.28170 237 ft 14 kts 224°
2026-05-06 16:14 53.35236 -2.28293 234 ft 14 kts 230°
2026-05-06 16:14 53.35178 -2.28412 231 ft 13 kts 231°
2026-05-06 16:15 53.35126 -2.28520 231 ft 10 kts 231°
2026-05-06 16:15 53.35086 -2.28603 234 ft 9 kts 231°
2026-05-06 16:15 53.35041 -2.28692 232 ft 11 kts 228°
2026-05-06 16:15 53.34988 -2.28788 231 ft 11 kts 226°
2026-05-06 16:16 53.34937 -2.28879 229 ft 11 kts 227°
2026-05-06 16:16 53.34879 -2.28981 222 ft 14 kts 226°
2026-05-06 16:16 53.34803 -2.29068 223 ft 9 kts 196°
2026-05-06 16:16 53.34741 -2.29063 217 ft 9 kts 162°
2026-05-06 16:17 53.34688 -2.29007 223 ft 9 kts 136°
2026-05-06 16:17 53.34680 -2.28937 218 ft 4 kts 65°
2026-05-06 16:17 53.34704 -2.28885 220 ft 8 kts 51°
2026-05-06 16:17 53.34776 -2.28733 229 ft 36 kts 52°
2026-05-06 16:18 53.35062 -2.28141 238 ft 96 kts 51°
2026-05-06 16:18 53.35597 -2.27017 282 ft 150 kts 52°
2026-05-06 16:18 53.36298 -2.25598 848 ft 162 kts 50°
2026-05-06 16:18 53.37089 -2.24154 1560 ft 175 kts 47°
2026-05-06 16:19 53.37963 -2.22667 2291 ft 187 kts 48°
2026-05-06 16:19 53.38561 -2.20660 2852 ft 206 kts 87°
2026-05-06 16:19 53.38129 -2.18396 3728 ft 210 kts 127°
2026-05-06 16:19 53.36879 -2.17017 4285 ft 234 kts 165°
2026-05-06 16:20 53.35177 -2.16792 4710 ft 256 kts 177°
2026-05-06 16:20 53.33338 -2.16827 4952 ft 269 kts 180°
2026-05-06 16:20 53.31477 -2.17065 5653 ft 272 kts 186°
2026-05-06 16:20 53.29589 -2.17449 6726 ft 271 kts 186°
2026-05-06 16:21 53.27710 -2.17793 7541 ft 277 kts 186°
2026-05-06 16:21 53.25756 -2.18111 8459 ft 280 kts 186°
2026-05-06 16:21 53.23783 -2.18429 9239 ft 289 kts 186°
2026-05-06 16:21 53.21811 -2.18738 10140 ft 291 kts 186°
2026-05-06 16:22 53.19770 -2.19058 10960 ft 295 kts 187°
2026-05-06 16:22 53.17713 -2.19380 11792 ft 298 kts 187°
2026-05-06 16:22 53.15640 -2.19709 12630 ft 302 kts 187°
2026-05-06 16:22 53.13528 -2.20046 13415 ft 307 kts 187°
2026-05-06 16:23 53.11387 -2.20378 14211 ft 310 kts 187°
2026-05-06 16:23 53.09232 -2.20713 14997 ft 312 kts 188°
2026-05-06 16:23 53.07058 -2.21056 15717 ft 316 kts 188°
2026-05-06 16:23 53.04859 -2.21404 16462 ft 319 kts 188°
2026-05-06 16:24 53.02641 -2.21753 17222 ft 322 kts 188°
2026-05-06 16:24 53.00396 -2.22100 17988 ft 326 kts 188°
2026-05-06 16:24 52.98126 -2.22455 18678 ft 329 kts 188°
2026-05-06 16:24 52.95836 -2.22816 19356 ft 331 kts 188°
2026-05-06 16:25 52.93531 -2.23176 20018 ft 335 kts 188°
2026-05-06 16:25 52.91202 -2.23526 20660 ft 338 kts 188°
2026-05-06 16:25 52.88854 -2.23888 21327 ft 340 kts 188°
2026-05-06 16:25 52.86498 -2.24341 21944 ft 342 kts 191°
2026-05-06 16:26 52.84149 -2.25060 22546 ft 345 kts 195°
2026-05-06 16:26 52.81809 -2.25955 23188 ft 346 kts 196°
2026-05-06 16:26 52.79447 -2.26902 23782 ft 350 kts 196°
2026-05-06 16:26 52.77075 -2.27836 24283 ft 352 kts 196°
2026-05-06 16:27 52.74686 -2.28749 24840 ft 353 kts 195°
2026-05-06 16:27 52.72281 -2.29653 25348 ft 356 kts 196°
2026-05-06 16:27 52.69855 -2.30560 25854 ft 358 kts 195°
2026-05-06 16:27 52.67370 -2.31134 26295 ft 366 kts 184°
2026-05-06 16:28 52.64807 -2.30645 26661 ft 378 kts 166°
2026-05-06 16:28 52.62427 -2.28818 27368 ft 378 kts 150°
2026-05-06 16:28 52.60301 -2.26269 27984 ft 380 kts 145°
2026-05-06 16:28 52.58181 -2.23593 28207 ft 389 kts 146°
2026-05-06 16:29 52.55981 -2.20976 28623 ft 392 kts 148°
2026-05-06 16:29 52.53740 -2.18429 29264 ft 390 kts 149°
2026-05-06 16:29 52.51495 -2.15914 29707 ft 393 kts 149°
2026-05-06 16:29 52.49227 -2.13368 30134 ft 395 kts 149°
2026-05-06 16:30 52.47000 -2.10852 30683 ft 392 kts 149°
2026-05-06 16:30 52.45488 -2.09138 31038 ft 391 kts 149°
2026-05-06 16:30 52.42486 -2.05736 31569 ft 393 kts 149°
2026-05-06 16:30 52.40226 -2.03225 32023 ft 392 kts 149°
2026-05-06 16:31 52.37965 -2.00749 32529 ft 390 kts 150°
2026-05-06 16:31 52.35706 -1.98314 32950 ft 390 kts 150°
2026-05-06 16:31 52.33464 -1.95913 33360 ft 389 kts 150°
2026-05-06 16:31 52.31214 -1.93494 33823 ft 387 kts 150°
2026-05-06 16:32 52.28962 -1.91077 34166 ft 387 kts 150°
2026-05-06 16:32 52.26714 -1.88662 34442 ft 388 kts 150°
2026-05-06 16:32 52.24461 -1.86241 34724 ft 388 kts 149°
2026-05-06 16:32 52.22205 -1.83810 34937 ft 389 kts 150°
2026-05-06 16:33 52.17658 -1.78954 35005 ft 390 kts 149°
2026-05-06 16:34 52.10946 -1.71783 34988 ft 380 kts 150°
2026-05-06 16:34 52.06523 -1.67064 35030 ft 383 kts 150°
2026-05-06 16:35 52.02046 -1.62311 34987 ft 384 kts 150°
2026-05-06 16:35 51.97599 -1.57590 34972 ft 381 kts 150°
2026-05-06 16:36 51.93159 -1.52929 34993 ft 381 kts 150°
2026-05-06 16:36 51.88714 -1.48250 34998 ft 382 kts 150°
2026-05-06 16:37 51.84247 -1.43556 34994 ft 382 kts 150°
2026-05-06 16:37 51.79846 -1.38920 34972 ft 379 kts 149°
2026-05-06 16:38 51.75200 -1.34977 34961 ft 376 kts 163°
2026-05-06 16:38 51.70206 -1.32518 34985 ft 376 kts 167°
2026-05-06 16:39 51.65184 -1.30081 34976 ft 377 kts 165°
2026-05-06 16:39 51.60206 -1.27540 34963 ft 375 kts 165°
2026-05-06 16:40 51.55218 -1.25016 34957 ft 375 kts 165°
2026-05-06 16:40 51.50234 -1.22447 34961 ft 377 kts 162°
2026-05-06 16:41 51.45370 -1.19198 34967 ft 379 kts 158°
2026-05-06 16:41 51.40595 -1.15638 34958 ft 379 kts 158°
2026-05-06 16:42 51.35802 -1.12106 34954 ft 378 kts 158°
2026-05-06 16:42 51.31023 -1.08616 34952 ft 378 kts 158°
2026-05-06 16:43 51.26237 -1.05110 34958 ft 378 kts 158°
2026-05-06 16:43 51.21475 -1.01517 34955 ft 379 kts 154°
2026-05-06 16:44 51.16916 -0.97385 34958 ft 380 kts 151°
2026-05-06 16:44 51.12373 -0.93113 34955 ft 380 kts 151°
2026-05-06 16:45 51.07795 -0.88907 34955 ft 380 kts 152°
2026-05-06 16:45 51.03211 -0.84709 34953 ft 380 kts 152°
2026-05-06 16:46 50.98635 -0.80533 34944 ft 380 kts 152°
2026-05-06 16:46 50.94058 -0.76337 34946 ft 380 kts 152°
2026-05-06 16:47 50.89491 -0.72129 34943 ft 380 kts 152°
2026-05-06 16:47 50.84911 -0.67956 34931 ft 380 kts 152°
2026-05-06 16:48 50.80366 -0.63698 34933 ft 379 kts 152°
2026-05-06 16:48 50.75775 -0.59587 34939 ft 380 kts 152°
2026-05-06 16:49 50.71192 -0.55421 34936 ft 380 kts 152°
2026-05-06 16:49 50.66609 -0.51234 34933 ft 380 kts 152°
2026-05-06 16:50 50.62033 -0.47074 34921 ft 380 kts 151°
2026-05-06 16:50 50.57487 -0.42947 34922 ft 379 kts 151°
2026-05-06 16:51 50.52929 -0.38790 34920 ft 379 kts 151°
2026-05-06 16:51 50.48352 -0.34634 34921 ft 379 kts 151°
2026-05-06 16:52 50.43781 -0.30488 34928 ft 380 kts 151°
2026-05-06 16:52 50.39196 -0.26358 34922 ft 381 kts 151°
2026-05-06 16:53 50.34622 -0.22182 34918 ft 380 kts 151°
2026-05-06 16:53 50.30033 -0.18044 34927 ft 381 kts 151°
2026-05-06 16:54 50.25452 -0.13911 34915 ft 380 kts 151°
2026-05-06 16:54 50.20874 -0.09774 34914 ft 380 kts 151°
2026-05-06 16:55 50.16303 -0.05649 34907 ft 380 kts 150°
2026-05-06 16:55 50.11705 -0.01551 34916 ft 380 kts 153°
2026-05-06 16:56 50.06792 0.01419 34914 ft 379 kts 167°
2026-05-06 16:56 50.01660 0.03260 34920 ft 379 kts 168°
2026-05-06 16:57 49.96539 0.05213 34915 ft 379 kts 166°
2026-05-06 16:57 49.91459 0.07247 34914 ft 379 kts 167°
2026-05-06 16:58 49.86350 0.09261 34912 ft 378 kts 166°
2026-05-06 16:58 49.81242 0.11244 34921 ft 379 kts 166°
2026-05-06 16:59 49.76141 0.13276 34927 ft 379 kts 167°
2026-05-06 16:59 49.71028 0.15282 34931 ft 380 kts 166°
2026-05-06 17:00 49.66735 0.16968 34925 ft 379 kts 166°
2026-05-06 17:00 49.61623 0.19007 34933 ft 379 kts 166°
2026-05-06 17:01 49.56516 0.21084 34933 ft 379 kts 166°
2026-05-06 17:01 49.51439 0.23117 34930 ft 381 kts 166°
2026-05-06 17:02 49.46290 0.25175 34907 ft 382 kts 166°
2026-05-06 17:02 49.41161 0.27222 34886 ft 380 kts 166°
2026-05-06 17:03 49.36039 0.29253 34912 ft 382 kts 166°
2026-05-06 17:03 49.30886 0.31365 34911 ft 383 kts 166°
2026-05-06 17:04 49.25765 0.33487 34904 ft 379 kts 165°
2026-05-06 17:04 49.20677 0.35661 34869 ft 381 kts 166°
2026-05-06 17:05 49.15549 0.37798 34905 ft 382 kts 165°
2026-05-06 17:05 49.10416 0.39950 34880 ft 382 kts 165°
2026-05-06 17:06 49.05295 0.42078 34884 ft 382 kts 165°
2026-05-06 17:06 49.00139 0.44241 34907 ft 385 kts 165°
2026-05-06 17:07 48.95005 0.46387 34847 ft 381 kts 165°
2026-05-06 17:07 48.89865 0.48518 34929 ft 385 kts 166°
2026-05-06 17:08 48.84656 0.50688 34903 ft 386 kts 165°
2026-05-06 17:08 48.79517 0.52805 34849 ft 379 kts 166°
2026-05-06 17:09 48.74394 0.54838 34913 ft 384 kts 166°
2026-05-06 17:09 48.69209 0.56871 34861 ft 384 kts 167°
2026-05-06 17:10 48.64065 0.58859 34877 ft 382 kts 166°
2026-05-06 17:10 48.58900 0.60904 34902 ft 384 kts 166°
2026-05-06 17:11 48.53745 0.62914 34859 ft 382 kts 166°
2026-05-06 17:11 48.48637 0.64991 34875 ft 380 kts 165°
2026-05-06 17:12 48.43502 0.67079 34897 ft 383 kts 165°
2026-05-06 17:12 48.38394 0.69157 34866 ft 382 kts 166°
2026-05-06 17:13 48.33263 0.71222 34876 ft 380 kts 165°
2026-05-06 17:13 48.28151 0.73280 34879 ft 380 kts 166°
2026-05-06 17:14 48.22997 0.75341 34985 ft 391 kts 166°
2026-05-06 17:14 48.20330 0.76394 34973 ft 402 kts 166°
2026-05-06 17:14 48.17591 0.77468 34973 ft 413 kts 166°
2026-05-06 17:14 48.14770 0.78571 34973 ft 424 kts 166°
2026-05-06 17:15 48.11884 0.79701 34971 ft 435 kts 166°
2026-05-06 17:15 48.08912 0.80863 34967 ft 446 kts 166°
2026-05-06 17:15 48.05898 0.82043 34957 ft 450 kts 166°
2026-05-06 17:16 47.99860 0.84409 34948 ft 446 kts 166°
2026-05-06 17:16 47.93862 0.86753 34947 ft 445 kts 166°
2026-05-06 17:17 47.87869 0.89086 34949 ft 446 kts 166°
2026-05-06 17:17 47.81875 0.91429 34951 ft 445 kts 166°
2026-05-06 17:18 47.75867 0.93756 34944 ft 445 kts 166°
2026-05-06 17:18 47.69884 0.96047 34944 ft 444 kts 166°
2026-05-06 17:19 47.63893 0.98356 34945 ft 446 kts 166°
2026-05-06 17:19 47.57886 1.00674 34931 ft 446 kts 166°
2026-05-06 17:20 47.51919 1.02958 34940 ft 446 kts 166°
2026-05-06 17:20 47.45919 1.05249 34938 ft 445 kts 166°
2026-05-06 17:21 47.39828 1.06697 34937 ft 443 kts 180°
2026-05-06 17:21 47.33624 1.06369 34944 ft 444 kts 184°
2026-05-06 17:22 47.27490 1.06022 34942 ft 444 kts 182°
2026-05-06 17:22 47.21326 1.05923 34945 ft 443 kts 181°
2026-05-06 17:23 47.15156 1.05800 34944 ft 443 kts 182°
2026-05-06 17:23 47.08990 1.05640 34945 ft 444 kts 182°
2026-05-06 17:24 47.02818 1.05484 34948 ft 444 kts 182°
2026-05-06 17:24 46.96648 1.05225 34948 ft 444 kts 183°
2026-05-06 17:25 46.90479 1.04942 34943 ft 443 kts 182°
2026-05-06 17:25 46.84316 1.04696 34944 ft 442 kts 182°
2026-05-06 17:26 46.78167 1.04423 34946 ft 443 kts 183°
2026-05-06 17:26 46.72001 1.04172 34942 ft 443 kts 182°
2026-05-06 17:27 46.65836 1.03912 34943 ft 443 kts 183°
2026-05-06 17:27 46.59664 1.03643 34942 ft 443 kts 183°
2026-05-06 17:28 46.53503 1.03402 34944 ft 443 kts 183°
2026-05-06 17:28 46.47324 1.03258 34937 ft 445 kts 181°
2026-05-06 17:29 46.41130 1.03210 34938 ft 445 kts 181°
2026-05-06 17:29 46.34945 1.03148 34933 ft 445 kts 182°
2026-05-06 17:30 46.28736 1.03067 34937 ft 446 kts 182°
2026-05-06 17:30 46.22526 1.02985 34933 ft 446 kts 182°
2026-05-06 17:31 46.16327 1.02923 34921 ft 446 kts 182°
2026-05-06 17:31 46.10126 1.02868 34925 ft 445 kts 181°
2026-05-06 17:32 46.03982 1.02799 34920 ft 445 kts 182°
2026-05-06 17:32 45.97783 1.02718 34920 ft 446 kts 182°
2026-05-06 17:33 45.91578 1.02654 34918 ft 445 kts 182°
2026-05-06 17:33 45.85398 1.02578 34918 ft 443 kts 182°
2026-05-06 17:34 45.79240 1.03071 34922 ft 445 kts 173°
2026-05-06 17:34 45.73142 1.04720 34918 ft 446 kts 169°
2026-05-06 17:35 45.67055 1.06417 34917 ft 446 kts 171°
2026-05-06 17:35 45.60943 1.07943 34917 ft 446 kts 172°
2026-05-06 17:36 45.51767 1.10252 34916 ft 446 kts 172°
2026-05-06 17:36 45.45653 1.11798 34914 ft 447 kts 171°
2026-05-06 17:37 45.39534 1.13343 34911 ft 447 kts 172°
2026-05-06 17:37 45.33418 1.14886 34916 ft 446 kts 172°
2026-05-06 17:38 45.27315 1.16437 34920 ft 445 kts 172°
2026-05-06 17:38 45.21231 1.17960 34915 ft 444 kts 172°
2026-05-06 17:39 45.15132 1.19136 34913 ft 440 kts 181°
2026-05-06 17:39 45.09101 1.18046 34928 ft 437 kts 195°
2026-05-06 17:40 45.03170 1.16132 34919 ft 438 kts 193°
2026-05-06 17:40 44.97184 1.14583 34921 ft 437 kts 192°
2026-05-06 17:41 44.91187 1.13111 34926 ft 443 kts 192°
2026-05-06 17:41 44.85124 1.11561 34925 ft 442 kts 193°
2026-05-06 17:42 44.79102 1.10019 34921 ft 439 kts 193°
2026-05-06 17:42 44.73086 1.08496 34933 ft 440 kts 193°
2026-05-06 17:43 44.67058 1.06973 34937 ft 440 kts 192°
2026-05-06 17:43 44.61040 1.05446 34925 ft 440 kts 192°
2026-05-06 17:44 44.55028 1.03922 34938 ft 439 kts 193°
2026-05-06 17:44 44.49027 1.02405 34941 ft 439 kts 193°
2026-05-06 17:45 44.43003 1.00885 34947 ft 439 kts 193°
2026-05-06 17:45 44.36987 0.99355 34953 ft 439 kts 193°
2026-05-06 17:46 44.30980 0.97847 34949 ft 439 kts 193°
2026-05-06 17:46 44.25994 0.96601 34953 ft 438 kts 193°
2026-05-06 17:47 44.19996 0.95085 34961 ft 438 kts 193°
2026-05-06 17:47 44.13994 0.93565 34967 ft 439 kts 193°
2026-05-06 17:48 44.07997 0.92059 34965 ft 437 kts 193°
2026-05-06 17:48 44.02012 0.90565 34955 ft 437 kts 193°
2026-05-06 17:49 43.96045 0.89076 34976 ft 435 kts 193°
2026-05-06 17:49 43.90074 0.87569 34975 ft 436 kts 194°
2026-05-06 17:50 43.84115 0.86017 34968 ft 436 kts 194°
2026-05-06 17:50 43.78168 0.84432 34976 ft 434 kts 194°
2026-05-06 17:51 43.72267 0.82859 34974 ft 432 kts 194°
2026-05-06 17:51 43.66359 0.81292 34979 ft 432 kts 194°
2026-05-06 17:52 43.60451 0.79737 34980 ft 432 kts 195°
2026-05-06 17:52 43.54553 0.78173 34982 ft 431 kts 195°
2026-05-06 17:53 43.48665 0.76616 34982 ft 431 kts 195°
2026-05-06 17:53 43.42760 0.75062 34971 ft 434 kts 195°
2026-05-06 17:54 43.36897 0.73505 34988 ft 431 kts 195°
2026-05-06 17:54 43.31032 0.71967 34990 ft 429 kts 195°
2026-05-06 17:55 43.25164 0.70430 34993 ft 429 kts 195°
2026-05-06 17:55 43.19289 0.68887 34993 ft 429 kts 195°
2026-05-06 17:56 43.13448 0.67354 34998 ft 427 kts 195°
2026-05-06 17:56 43.07624 0.65834 34999 ft 426 kts 195°
2026-05-06 17:57 43.01806 0.64274 34985 ft 427 kts 195°
2026-05-06 17:57 42.96001 0.62776 34996 ft 423 kts 196°
2026-05-06 17:58 42.90223 0.61273 34993 ft 422 kts 196°
2026-05-06 17:58 42.84437 0.59760 34993 ft 425 kts 196°
2026-05-06 17:59 42.78633 0.58228 34982 ft 424 kts 196°
2026-05-06 17:59 42.72851 0.56720 34978 ft 423 kts 196°
2026-05-06 18:00 42.67241 0.54722 34964 ft 417 kts 206°
2026-05-06 18:00 42.62001 0.51346 34964 ft 413 kts 212°
2026-05-06 18:01 42.56906 0.47905 34945 ft 412 kts 210°
2026-05-06 18:01 42.51666 0.44587 34931 ft 413 kts 210°
2026-05-06 18:02 42.46484 0.41317 34929 ft 413 kts 210°
2026-05-06 18:02 42.41287 0.38000 34909 ft 413 kts 210°
2026-05-06 18:03 42.36081 0.34681 34904 ft 413 kts 210°
2026-05-06 18:03 42.30891 0.31372 34910 ft 412 kts 209°
2026-05-06 18:04 42.25700 0.28087 34905 ft 412 kts 209°
2026-05-06 18:04 42.20512 0.24775 34907 ft 413 kts 209°
2026-05-06 18:05 42.15328 0.21508 34904 ft 409 kts 209°
2026-05-06 18:05 42.10182 0.18252 34901 ft 408 kts 209°
2026-05-06 18:06 42.04856 0.15528 34900 ft 417 kts 197°
2026-05-06 18:06 41.99038 0.14611 34914 ft 423 kts 189°
2026-05-06 18:07 41.93203 0.13959 34908 ft 418 kts 191°
2026-05-06 18:07 41.87430 0.13062 34910 ft 417 kts 192°
2026-05-06 18:08 41.81713 0.12175 34908 ft 417 kts 192°
2026-05-06 18:08 41.75939 0.11307 34905 ft 417 kts 192°
2026-05-06 18:09 41.70190 0.10443 34907 ft 415 kts 192°
2026-05-06 18:09 41.64465 0.09575 34911 ft 414 kts 192°
2026-05-06 18:10 41.58735 0.08725 34916 ft 414 kts 192°
2026-05-06 18:10 41.53011 0.07864 34918 ft 413 kts 192°
2026-05-06 18:11 41.47302 0.07023 34919 ft 413 kts 192°
2026-05-06 18:11 41.41592 0.06148 34916 ft 414 kts 192°
2026-05-06 18:12 41.35867 0.05292 34919 ft 413 kts 192°
2026-05-06 18:12 41.30172 0.04443 34920 ft 411 kts 192°
2026-05-06 18:13 41.24491 0.03585 34922 ft 411 kts 193°
2026-05-06 18:13 41.18812 0.02737 34923 ft 412 kts 192°
2026-05-06 18:14 41.13113 0.01892 34907 ft 413 kts 192°
2026-05-06 18:14 41.07420 0.01063 34930 ft 410 kts 193°
2026-05-06 18:15 41.01752 0.00216 34929 ft 410 kts 193°
2026-05-06 18:15 40.96085 -0.00598 34935 ft 411 kts 192°
2026-05-06 18:16 40.90388 -0.01424 34919 ft 412 kts 193°
2026-05-06 18:16 40.84751 -0.02246 34938 ft 405 kts 193°
2026-05-06 18:17 40.79111 -0.03061 34939 ft 410 kts 193°
2026-05-06 18:17 40.73456 -0.03882 34944 ft 407 kts 192°
2026-05-06 18:18 40.67863 -0.04690 34947 ft 408 kts 193°
2026-05-06 18:18 40.62206 -0.05500 34949 ft 408 kts 193°
2026-05-06 18:19 40.56580 -0.06389 34941 ft 405 kts 196°
2026-05-06 18:19 40.51173 -0.08185 34942 ft 399 kts 203°
2026-05-06 18:20 40.45895 -0.10410 34923 ft 397 kts 203°
2026-05-06 18:20 40.40613 -0.12504 34926 ft 396 kts 202°
2026-05-06 18:21 40.35337 -0.14561 34925 ft 396 kts 202°
2026-05-06 18:21 40.30045 -0.16630 34919 ft 398 kts 202°
2026-05-06 18:22 40.24759 -0.18706 34884 ft 395 kts 203°
2026-05-06 18:22 40.19508 -0.20776 34933 ft 397 kts 203°
2026-05-06 18:23 40.14198 -0.22855 34929 ft 398 kts 203°
2026-05-06 18:23 40.08926 -0.24927 34937 ft 394 kts 203°
2026-05-06 18:24 40.03660 -0.26938 34957 ft 395 kts 203°
2026-05-06 18:24 39.98392 -0.29037 34955 ft 396 kts 203°
2026-05-06 18:25 39.93139 -0.31080 34953 ft 392 kts 203°
2026-05-06 18:25 39.87895 -0.33116 34947 ft 395 kts 203°
2026-05-06 18:26 39.82619 -0.35195 34947 ft 396 kts 203°
2026-05-06 18:26 39.77365 -0.37207 34950 ft 391 kts 203°
2026-05-06 18:27 39.72169 -0.39220 34945 ft 389 kts 203°
2026-05-06 18:27 39.66973 -0.41229 34948 ft 391 kts 203°
2026-05-06 18:28 39.61754 -0.43245 34943 ft 391 kts 203°